Weather History for Northeast Philadelphia, PA

Change the Weather History Date:

Saturday, December 21, 2013

  Actual Average Record
Temperature  
Mean Temperature 56 °F -  
Max Temperature 68 °F 40 °F 68 °F (2013)
Min Temperature 44 °F 26 °F 15 °F (2004)
Degree Days  
Heating Degree Days 9    
Growing Degree Days 6 (Base 50)    
Moisture  
Dew Point 50 °F    
Average Humidity 75    
Maximum Humidity 93    
Minimum Humidity 56    
Precipitation  
Precipitation 0.02 in - - ()
Sea Level Pressure  
Sea Level Pressure 29.98 in    
Wind  
Wind Speed 5 mph (SW)    
Max Wind Speed 13 mph    
Max Gust Speed 21 mph    
Visibility 10 miles    
Events      
Averages and records for this station are not official NWS values.
T = Trace of Precipitation, MM = Missing Value Source: NWS Daily Summary

Daily Weather History Graph

Daily Weather History Graph

Search for Another Location

Airport:

Trip Planner

Search our weather history database for the weather conditions in past years. The results will help you decide how hot, cold, wet, or windy it might be!

Date:

Astronomy

Dec. 21, 2013 Rise Set
Actual Time 7:18 AM EST 4:37 PM EST
Civil Twilight 6:48 AM EST 5:08 PM EST
Nautical Twilight 6:13 AM EST 5:42 PM EST
Astronomical Twilight 5:40 AM EST 6:15 PM EST
Moon 8:52 PM EST (12/21) 9:43 AM EST (12/21)
Length of Visible Light 10h 20m
Length of Day
9h 19m
Waning Gibbous, 84% of the Moon is Illuminated
Dec 21
Waning Gibbous
Dec 25
Last Quarter
Jan 1
New
Jan 7
First Quarter
Jan 15
Full

Hourly Weather History & Observations

Time (EST) Temp. Windchill Dew Point Humidity Pressure Visibility Wind Dir Wind Speed Gust Speed Precip Events Conditions
12:54 AM 51.1 °F - 46.9 °F 86% 30.00 in 9.0 mi SSW 3.5 mph - N/A   Clear
1:54 AM 52.0 °F - 48.9 °F 89% 30.01 in 9.0 mi SW 5.8 mph - N/A   Clear
2:54 AM 46.9 °F - 45.0 °F 93% 30.02 in 9.0 mi West 3.5 mph - N/A   Clear
3:54 AM 45.0 °F 42.6 °F 43.0 °F 93% 30.00 in 5.0 mi South 4.6 mph - N/A   Clear
4:54 AM 48.0 °F - 45.0 °F 89% 30.01 in 10.0 mi West 3.5 mph - N/A   Clear
5:54 AM 44.1 °F - 42.1 °F 93% 30.01 in 9.0 mi Calm Calm - N/A   Clear
6:54 AM 48.0 °F - 44.1 °F 86% 30.01 in 10.0 mi SW 3.5 mph - N/A   Clear
7:54 AM 52.0 °F - 46.0 °F 80% 30.02 in 10.0 mi SSW 3.5 mph - N/A   Mostly Cloudy
8:54 AM 53.1 °F - 46.9 °F 80% 30.02 in 10.0 mi SSW 4.6 mph - N/A   Overcast
9:54 AM 55.9 °F - 48.0 °F 75% 30.03 in 10.0 mi SSW 8.1 mph - N/A   Overcast
10:54 AM 59.0 °F - 50.0 °F 72% 30.01 in 10.0 mi SW 9.2 mph - N/A   Overcast
11:54 AM 62.1 °F - 51.1 °F 67% 29.98 in 10.0 mi SSW 9.2 mph 20.7 mph 0.01 in   Mostly Cloudy
12:54 PM 64.0 °F - 51.1 °F 63% 29.95 in 10.0 mi SSW 12.7 mph 19.6 mph N/A   Partly Cloudy
1:54 PM 66.0 °F - 51.1 °F 59% 29.94 in 10.0 mi SSW 10.4 mph - 0.01 in   Clear
2:54 PM 68.0 °F - 52.0 °F 56% 29.93 in 10.0 mi SW 10.4 mph 19.6 mph N/A   Clear
3:54 PM 68.0 °F - 52.0 °F 56% 29.95 in 10.0 mi SW 9.2 mph - N/A   Scattered Clouds
4:54 PM 64.9 °F - 52.0 °F 63% 29.96 in 10.0 mi SW 3.5 mph - N/A   Clear
5:54 PM 63.0 °F - 52.0 °F 67% 29.96 in 10.0 mi South 4.6 mph - N/A   Clear
6:54 PM 62.1 °F - 52.0 °F 70% 29.97 in 10.0 mi Calm Calm - N/A   Partly Cloudy
7:54 PM 62.1 °F - 53.1 °F 72% 29.97 in 10.0 mi SSW 4.6 mph - N/A   Clear
8:54 PM 62.1 °F - 54.0 °F 75% 29.96 in 10.0 mi SSW 4.6 mph - N/A   Clear
9:54 PM 63.0 °F - 54.0 °F 72% 29.96 in 10.0 mi SSW 9.2 mph - N/A   Mostly Cloudy
10:54 PM 64.9 °F - 55.9 °F 73% 29.95 in 10.0 mi SSW 11.5 mph 20.7 mph N/A   Overcast
11:54 PM 64.0 °F - 55.9 °F 75% 29.94 in 10.0 mi SSW 9.2 mph 16.1 mph N/A   Scattered Clouds